Flag for United Kingdom Weather past 2 weeks in Plymouth, England, United Kingdom

Now
39 °F

Clear.


Feels Like: 35 °F
Forecast: 39 / 57 °F
Wind: 6 mph from East

Location: Exeter Airport


UV Index: 0 (Low)

Visibility: 10 mi


Pressure: 30.21 "Hg

Humidity: 93%

Dew point: 37 °F

Location of PlymouthLocation

Historic Weather in Plymouth

°F

Plymouth temperature yesterday

Maximum temperature yesterday: 54 °F (at 11:20 AM)
Minimum temperature yesterday: 39 °F (at 11:50 PM)
Average temperature yesterday: 49 °F

Past Weeks' High & Low Weather Summary

 TemperatureHumidityPressure
High61 °F (Apr 11, 2:20 PM)100% (Apr 3, 12:20 AM)30.39 "Hg (Apr 3, 12:20 AM)
Low37 °F (Apr 9, 6:50 AM)44% (Apr 15, 1:20 PM)29.47 "Hg (Apr 2, 6:20 PM)
Average51 °F80%30.04 "Hg
* Reported Apr 2 1:20 AM — Apr 17 1:50 AM, Plymouth, Weather by CustomWeather, © 2014

Note: Actual official high and low records may vary slightly from our data, if they occured in-between our weather recording intervals... More about our weather records

Advertising

Historic Weather Conditions — Data for Previous 24 hours

 ConditionsComfort  
Time TempWeatherWind HumidityBarometerVisibility
1:50 AM
Apr 17
41 °FClear.3 mph93%30.24 "Hg10 mi
1:20 AM41 °FClear.1 mph93%30.21 "Hg10 mi
12:50 AM41 °FClear.No wind87%30.24 "Hg10 mi
11:50 PM
Apr 16
39 °FClear.1 mph93%30.24 "Hg10 mi
11:20 PM41 °FClear.3 mph87%30.24 "Hg10 mi
10:50 PM43 °FClear.1 mph87%30.24 "Hg10 mi
10:20 PM43 °FClear.2 mph93%30.24 "Hg10 mi
9:50 PM43 °FClear.1 mph87%30.24 "Hg10 mi
9:20 PM45 °FClear.1 mph87%30.24 "Hg10 mi
8:50 PM46 °FSunny.3 mph82%30.24 "Hg10 mi
8:20 PM46 °FPassing clouds.5 mph82%30.24 "HgN/A
7:50 PM48 °FSunny.8 mph76%30.24 "Hg10 mi
7:20 PM50 °FSunny.10 mph67%30.24 "Hg10 mi
6:50 PM52 °FSunny.10 mph62%30.24 "Hg10 mi
6:20 PM52 °FSunny.10 mph58%30.24 "Hg10 mi
5:50 PM54 °FSunny.12 mph58%30.27 "Hg10 mi
5:20 PM54 °FPassing clouds.12 mph54%30.27 "HgN/A
4:50 PM54 °FSunny.14 mph54%30.27 "Hg10 mi
4:20 PM54 °FSunny.13 mph58%30.27 "Hg10 mi
3:50 PM54 °FPassing clouds.12 mph63%30.27 "HgN/A
3:20 PM54 °FPassing clouds.14 mph63%30.30 "HgN/A
2:50 PM54 °FPassing clouds.10 mph63%30.30 "HgN/A
2:20 PM54 °FPassing clouds.12 mph63%30.30 "HgN/A
1:50 PM54 °FPassing clouds.12 mph63%30.30 "HgN/A
1:20 PM54 °FPassing clouds.14 mph67%30.30 "HgN/A
12:50 PM54 °FPassing clouds.14 mph67%30.30 "HgN/A
12:20 PM54 °FPassing clouds.15 mph67%30.30 "HgN/A
11:50 AM54 °FPassing clouds.13 mph67%30.33 "HgN/A
11:20 AM54 °FPassing clouds.13 mph67%30.33 "HgN/A
10:50 AM52 °FPassing clouds.15 mph77%30.30 "HgN/A
10:20 AM52 °FPassing clouds.14 mph77%30.30 "HgN/A
9:50 AM50 °FPassing clouds.13 mph82%30.33 "HgN/A
9:20 AM50 °FPassing clouds.15 mph82%30.33 "HgN/A
8:50 AM48 °FScattered clouds.14 mph82%30.33 "HgN/A
8:20 AM48 °FScattered clouds.15 mph82%30.33 "HgN/A
7:50 AM46 °FScattered clouds.10 mph87%30.33 "HgN/A
7:20 AM46 °FPassing clouds.10 mph87%30.33 "HgN/A
6:50 AM46 °FPassing clouds.12 mph87%30.33 "HgN/A
6:20 AM46 °FPassing clouds.14 mph87%30.33 "HgN/A
Weather by CustomWeather, © 2014

See weather overview